Regional Weather Roundup
Issued by NWS

Home | Current Version | Previous Version | Graphics & Text | Print | Product List | Glossary On
Versions: 1 2 3 4 5 6 7 8 9 10 11 12 13 14 15 16 17 18 19 20 21 22 23 24 25 26 27 28 29 30 31 32 33 34 35 36 37 38 39 40 41 42 43 44 45 46 47 48 49 50
000
ASUS43 KFSD 281702
RWRSD

WEATHER ROUNDUP FOR SOUTH DAKOTA
NATIONAL WEATHER SERVICE SIOUX FALLS SD
1200 PM CDT TUE JUL 28 2015

NOTE: "FAIR" INDICATES FEW OR NO CLOUDS BELOW 12,000 FEET WITH NO
SIGNIFICANT WEATHER AND/OR OBSTRUCTIONS TO VISIBILITY.


SDZ001>005-009-010-012>017-281800-
NORTHWEST AND NORTH CENTRAL SOUTH DAKOTA

CITY           SKY/WX    TMP DP  RH WIND       PRES   REMARKS
BUFFALO          N/A     66  43  43 W41G53    29.86R
FAITH            N/A     71  41  33 W32G44    29.92R
MOBRIDGE       SUNNY     72  51  47 W21G38    29.82R
$$

SDZ012>016-024>037-041>051-057-063-072>074-281800-
SOUTHWEST AND SOUTH CENTRAL SOUTH DAKOTA

CITY           SKY/WX    TMP DP  RH WIND       PRES   REMARKS
RAPID CTY ARPT SUNNY     72  42  34 W13G23    30.02R
PIERRE         SUNNY     75  49  39 W22       29.90S
CUSTER         SUNNY     60  37  42 W16G31    30.12R
PHILIP         SUNNY     74  46  36 W26G35    29.96F
PINE RIDGE     SUNNY     70  43  37 W16G22    30.06S
WINNER         FAIR      74  50  42 NW21G30   29.97S
$$

SDZ004>011-016>023-039-040-281800-
NORTHEAST SOUTH DAKOTA

CITY           SKY/WX    TMP DP  RH WIND       PRES   REMARKS
ABERDEEN       SUNNY     73  55  53 SW20G28   29.83S
WATERTOWN      NOT AVBL
BROOKINGS      CLOUDY    73  66  78 W12       29.86R
SISSETON         N/A     75  62  64 W21G29    29.77R
$$

SDZ017-020-022-023-036>040-048>070-281800-
SOUTHEAST SOUTH DAKOTA

CITY           SKY/WX    TMP DP  RH WIND       PRES   REMARKS
SIOUX FALLS    CLOUDY    75  69  81 W16G26    29.86R
HURON          SUNNY     73  58  59 W18       29.89R
MITCHELL       SUNNY     75  63  66 W17G24    29.90R
YANKTON        CLOUDY    79  66  65 MISG      29.88
$$

ABBREVIATIONS USED IN REMARKS
   TC - TEMPERATURE IN CELSIUS
  WCI - WIND CHILL INDEX
   HX - HEAT INDEX
  VSB - VISIBILITY



USA.gov is the U.S. government's official web portal to all federal, state and local government web resources and services.